Location: Spor
(46.2167°N, 11.0500°E)
Time: 22:54:09
(UTC+00:00)

STARLINK-50 - Pass Details

Date: 07 June 2020
Orbit: 434 x 435 km, 53.0° (Epoch: 05 July)

Event Time Altitude Azimuth Distance (km) Brightness Sun altitude
Exits shadow 02:36:19 - 233° (SW) 1,572 5.3 -7.3°
Reaches altitude 10° 02:36:24 10° 233° (SW) 1,536 5.2 -7.3°
Maximum altitude 02:39:51 78° 147° (SSE) 449 3.2 -6.9°
Drops below altitude 10° 02:43:19 10° 61° (ENE) 1,548 7.5 -6.4°
Sets 02:45:27 0° 60° (ENE) 2,421 8.9 -6.1°
